Regional Weather Roundup
Issued by NWS Little Rock, AR

Home | Current Version | Previous Version | Graphics & Text | Print | Product List | Glossary On
Versions: 1 2 3 4 5 6 7 8 9 10 11 12 13 14 15 16 17 18 19 20 21 22 23 24 25 26 27
000
ASUS44 KLZK 282105
RWRLZK

WEATHER ROUNDUP FOR ARKANSAS
NATIONAL WEATHER SERVICE LITTLE ROCK AR
400 PM CDT SAT MAY 28 2016

NOTE: "FAIR" INDICATES FEW OR NO CLOUDS BELOW 12,000 FEET WITH NO
SIGNIFICANT WEATHER AND/OR OBSTRUCTIONS TO VISIBILITY.

ARZ001-003-010-029-282200-
NORTHWEST ARKANSAS

CITY           SKY/WX    TMP DP  RH WIND       PRES   REMARKS
FAYETTEVILLE   MOSUNNY   80  68  66 S6        29.97S
FORT SMITH     SUNNY     85  66  53 S9        29.94F HX  87
HARRISON       SUNNY     83  67  58 S12       29.97F HX  85
BENTONVILLE    SUNNY     79  63  57 SW7       29.99S
ROGERS           N/A     79  65  62 S6        29.99S
SILOAM SPGS    MOSUNNY   79  63  57 SW9       29.99S
HIGHFILL       MOSUNNY   79  67  66 SW9       29.98S
SPRINGDALE     MOSUNNY   81  64  57 SW8G15    30.00S
$$

ARZ004-005-016-282200-
NORTH CENTRAL ARKANSAS

CITY           SKY/WX    TMP DP  RH WIND       PRES   REMARKS
BATESVILLE     CLOUDY    82  68  61 SW12      30.00S HX  85
FLIPPIN        MOSUNNY  N/A N/A N/A S6G16     29.94S
MTN HOME       MOSUNNY   83  68  60 S9        29.96S HX  86
$$

ARZ040-041-282200-
WEST CENTRAL ARKANSAS

CITY           SKY/WX    TMP DP  RH WIND       PRES   REMARKS
MENA           SUNNY     82  66  57 CALM      30.00F HX  85
MOUNT IDA      MOSUNNY   78  66  66 VRB5      29.99S
$$

ARZ009-017-025-026-028-282200-
NORTHEAST ARKANSAS

CITY           SKY/WX    TMP DP  RH WIND       PRES   REMARKS
CORNING        LGT RAIN  82  72  69 SW16      30.00S HX  87
JONESBORO      PTSUNNY   82  67  60 SW14      29.99F
NEWPORT        CLOUDY    83  69  62 S13       30.01S HX  86
WALNUT RIDGE   CLOUDY    81  66  61 S15G22    29.99S
BLYTHEVILLE    PTSUNNY   83  70  64 S12       30.01R HX  87
$$

ARZ022-023-033-042-044-282200-
CENTRAL ARKANSAS

CITY           SKY/WX    TMP DP  RH WIND       PRES   REMARKS
LITTLE ROCK    PTSUNNY   84  66  54 SW8       30.00S HX  86
N LITTLE ROCK    N/A     82  67  59 SW6       29.98S HX  85
JACKSONVILLE   MOSUNNY   84  68  58 VRB6      29.99S HX  87
SEARCY         PTSUNNY   82  69  64 S10       30.01S HX  85
HOT SPRINGS    PTSUNNY   78  64  61 VRB5      30.01F
RUSSELLVILLE   SUNNY     82  66  58 VRB3      29.98F
CLINTON        FAIR      82  68  61 SW3       30.00S HX  85
$$

ARZ036-282200-
EAST ARKANSAS

CITY           SKY/WX    TMP DP  RH WIND       PRES   REMARKS
WEST MEMPHIS   CLOUDY    81  70  69 S9        29.99F
$$

ARZ050-053-066-070-073-282200-
SOUTHWEST ARKANSAS

CITY           SKY/WX    TMP DP  RH WIND       PRES   REMARKS
ARKADELPHIA    MOCLDY    79  68  69 CALM      30.01F
CAMDEN         PTSUNNY   86  64  48 CALM      30.00S HX  87
TEXARKANA      SUNNY     78  66  66 E5        30.00F
EL DORADO      PTSUNNY   84  69  60 CALM      30.00S HX  88
DE QUEEN       SUNNY     80  68  66 VRB3      29.97F
$$

ARZ056-057-069-282200-
SOUTHEAST ARKANSAS

CITY           SKY/WX    TMP DP  RH WIND       PRES   REMARKS
PINE BLUFF     PTSUNNY   82  65  56 CALM      30.00S
STUTTGART      MOSUNNY   82  63  51 S7        30.00F
MONTICELLO     CLOUDY    84  68  58 VRB5      30.00S HX  87

$$






USA.gov is the U.S. government's official web portal to all federal, state and local government web resources and services.